Theta_e
290 288 287 286 288 289 289 290 291 288 288 287 284 283 284 285 285 286 287 288 288 289 287 289 289 289 290 291 292 290 289 289 290 290 291 291 291 291 291 291 290 290 291 292 292 293 295 298 301 302 303 304 305 304 304 304 303 302 300 299 298 298 299 298 297 296 296 294 293 292 291 290 291 291 291 291 291 291 291 291 291 291 290 290 290 290
290 287 287 290 291 289 290 290 287 287 287 288 285 285 285 283 285 287 290 290 287 290 284 285 285 287 289 291 292 290 288 289 290 290 291 291 291 292 292 291 291 290 290 291 291 292 293 297 300 302 303 304 303 303 304 303 303 303 301 299 298 299 299 299 298 296 295 294 294 292 290 289 290 290 289 289 289 290 290 289 289 289 289 288 287 287
288 288 291 292 289 288 287 288 288 289 288 286 287 284 285 285 285 288 288 288 289 289 287 285 287 289 290 291 292 290 291 292 292 292 293 293 292 291 292 292 290 289 290 291 292 292 294 297 300 302 302 303 303 303 303 303 303 303 301 301 299 298 297 297 295 295 292 292 291 290 289 288 288 289 289 289 289 289 288 288 288 287 287 286 286 286
286 285 292 290 289 289 287 286 287 288 287 285 283 284 284 283 287 285 285 287 290 288 285 285 287 289 290 292 292 294 293 291 290 292 292 293 293 292 292 292 291 290 290 291 291 292 294 297 300 301 301 301 301 300 301 301 300 300 299 298 297 295 294 294 293 292 291 291 291 290 290 289 288 287 288 288 288 288 287 286 286 285 285 285 285 285
288 289 291 291 290 291 288 286 287 286 286 283 286 283 283 285 285 288 287 287 287 289 286 287 289 290 291 292 293 291 286 289 292 289 290 291 292 292 291 291 292 291 291 291 291 292 293 295 299 300 300 300 300 300 300 299 298 298 297 297 296 295 295 292 292 291 291 290 289 289 289 289 288 288 287 286 285 286 286 285 284 284 284 285 285 285
288 289 289 289 288 289 288 286 287 288 285 284 284 288 289 287 288 285 285 288 284 283 284 286 282 280 281 283 288 291 288 291 289 290 292 291 289 289 290 291 290 291 292 292 292 292 293 296 299 299 298 299 299 299 299 299 298 297 295 294 293 293 293 292 292 291 291 290 288 287 286 285 285 284 284 284 283 283 283 283 283 284 284 284 284 284
288 289 291 289 289 287 288 287 286 290 286 285 286 287 289 288 286 286 286 286 281 280 286 285 283 281 280 287 286 286 285 289 289 287 290 289 289 289 290 290 290 290 290 291 291 292 292 296 298 298 298 298 298 299 299 297 296 296 294 292 292 291 291 291 291 291 290 289 288 288 286 285 284 283 283 283 283 283 282 283 283 283 283 283 284 283
289 289 288 287 287 287 286 286 288 290 287 283 284 284 287 286 286 285 285 287 282 281 284 284 280 281 285 286 289 287 288 291 293 294 291 288 288 288 289 290 290 290 291 291 291 291 293 296 297 297 298 299 298 298 297 296 295 294 293 292 291 291 291 291 290 290 290 288 287 286 285 285 284 283 283 282 282 283 283 283 282 283 283 283 283 283
289 287 287 288 288 286 288 288 288 292 288 284 287 285 285 287 284 284 285 283 283 283 282 283 285 284 281 281 284 286 288 291 293 294 291 288 288 288 288 289 290 290 291 291 291 291 291 293 297 298 297 298 297 296 295 295 295 294 293 292 291 291 290 290 290 289 288 288 287 286 285 284 284 283 283 283 284 283 283 282 282 282 282 282 282 283
289 290 291 292 290 288 287 287 288 292 289 287 286 287 285 284 283 281 280 284 280 280 281 283 285 280 285 282 286 282 285 289 291 292 289 288 289 288 288 288 289 289 290 291 292 291 291 292 296 297 297 297 297 296 295 294 293 293 292 291 290 290 289 288 288 288 287 287 286 285 284 283 283 283 283 282 282 282 282 282 281 282 282 282 282 282
291 293 291 291 289 289 287 287 286 290 289 289 287 289 286 283 281 279 280 279 281 277 283 284 285 286 282 282 286 287 287 288 289 287 285 286 287 287 288 289 289 289 289 290 290 290 290 290 293 295 295 295 295 295 293 293 292 291 291 290 289 288 288 287 286 286 286 286 285 285 284 284 283 282 282 281 281 281 281 281 281 281 281 281 281 281
290 291 291 290 291 289 290 289 288 288 288 291 286 282 284 284 279 278 273 276 275 276 278 281 284 285 281 279 282 287 287 286 287 288 286 285 286 288 288 288 289 288 288 289 289 288 288 288 290 293 294 294 294 293 292 292 291 290 289 288 287 286 286 286 286 285 285 285 284 284 284 284 283 283 282 281 281 281 281 281 281 281 281 281 281 280
286 288 287 290 291 293 288 289 288 288 289 288 286 288 282 274 272 273 270 275 274 278 280 278 282 281 284 287 286 287 289 290 289 290 290 289 287 287 287 288 288 288 288 289 289 288 288 289 289 292 293 293 292 292 291 290 290 289 288 287 286 286 286 285 285 284 284 284 284 284 284 283 283 283 282 282 282 282 282 282 281 281 281 280 280 279
285 283 287 289 291 291 293 289 284 284 288 286 288 284 280 273 272 267 267 266 270 276 279 281 283 281 281 285 292 295 296 292 289 289 289 289 289 288 288 288 287 287 288 289 289 288 288 289 289 291 292 292 292 291 291 290 289 289 288 287 286 285 285 284 284 284 284 284 284 284 284 283 283 282 282 282 282 282 282 282 282 281 281 281 280 280
278 279 286 290 288 291 294 294 292 288 288 290 286 289 285 279 272 271 270 274 275 274 276 278 278 276 280 284 287 289 288 284 283 284 285 285 286 287 287 287 287 287 287 288 288 288 288 289 290 291 291 291 291 290 290 289 289 288 287 287 286 285 284 284 284 284 284 284 283 283 283 283 283 283 282 282 283 282 282 282 282 281 281 281 280 280
284 283 282 290 288 291 293 290 289 287 287 285 283 286 282 284 281 280 273 270 270 272 272 275 279 279 284 284 284 284 285 285 284 285 285 285 285 285 286 286 287 287 287 287 287 287 288 289 289 290 290 292 291 289 289 289 288 287 287 286 286 285 284 284 284 284 284 284 283 283 283 282 283 283 282 282 283 282 282 282 282 281 280 280 280 279
282 281 285 287 287 288 289 288 290 290 286 285 286 285 286 284 286 275 275 272 273 271 278 274 279 282 283 287 290 289 286 287 285 284 284 284 284 284 286 286 286 287 287 287 287 287 287 288 288 289 290 292 291 289 289 289 288 287 286 285 285 284 284 284 284 284 284 283 283 283 282 282 282 282 282 282 282 282 281 281 281 281 280 280 280 280
284 281 287 286 288 288 286 287 286 287 287 286 282 286 285 285 285 282 278 269 267 272 276 276 280 280 280 283 281 286 285 289 287 287 283 283 282 284 286 286 287 287 287 287 287 287 288 288 288 288 289 291 291 290 289 289 289 288 286 285 284 284 284 284 284 284 284 283 283 283 282 282 282 282 282 282 281 281 281 281 280 280 280 279 280 280
288 283 284 283 285 287 285 290 289 287 287 287 283 287 289 281 279 280 275 273 268 269 273 275 276 279 283 284 284 285 285 289 290 288 283 284 283 284 285 286 286 285 285 285 286 286 287 287 288 288 288 289 290 290 289 289 289 288 287 286 285 285 285 285 285 284 284 284 284 284 283 282 282 281 281 281 281 281 281 281 280 280 279 279 279 279
289 284 282 285 285 286 286 287 285 285 288 286 288 287 284 282 275 277 281 274 275 272 267 278 276 282 282 284 285 289 288 289 289 286 286 288 286 285 285 286 286 286 286 285 286 286 287 287 287 288 288 287 288 289 289 289 288 288 287 286 286 286 285 285 284 284 284 284 284 283 282 282 282 282 281 281 281 281 281 281 280 280 279 279 279 278
287 285 277 281 285 285 284 285 286 287 286 284 284 283 285 280 282 280 279 277 276 268 269 273 279 278 281 285 287 291 290 289 289 289 289 289 287 286 286 286 286 286 286 286 286 286 286 286 287 287 287 287 286 287 288 288 288 288 287 286 286 286 285 285 284 284 284 284 283 282 282 281 281 281 281 281 281 281 281 280 280 280 280 279 279 278
285 282 282 279 282 282 284 283 286 288 290 289 289 286 289 283 280 277 279 278 273 276 276 268 279 285 282 285 289 290 289 290 287 287 289 287 286 286 286 286 287 286 286 286 286 286 286 286 286 286 286 285 284 285 286 287 287 287 286 287 286 286 285 284 284 284 284 283 283 282 282 281 281 281 281 281 281 280 280 280 280 280 280 280 279 278
291 285 283 279 283 285 284 286 284 285 285 286 286 284 288 288 285 279 278 278 274 279 276 274 269 284 286 284 284 286 285 285 285 286 288 288 285 286 286 287 287 287 287 287 286 286 286 286 286 286 285 285 284 284 284 285 286 286 286 286 286 285 285 285 284 284 284 283 283 282 282 281 281 281 281 281 280 280 280 279 280 280 280 279 278 279
294 287 286 284 282 281 283 283 283 282 285 286 285 281 286 287 287 287 283 280 282 277 278 273 275 281 286 283 282 282 281 282 283 283 286 286 285 285 286 286 286 286 285 286 286 285 285 285 285 285 284 284 284 284 284 284 284 285 285 285 285 284 284 284 283 283 283 283 282 282 281 281 281 280 280 280 280 280 279 279 279 280 279 279 278 278
289 287 288 284 280 282 281 284 284 285 286 282 283 286 289 290 287 282 281 278 278 279 282 281 278 282 286 282 281 283 283 284 286 284 284 286 285 285 286 286 286 286 285 285 285 285 284 284 284 284 285 284 284 283 283 283 284 284 284 284 284 284 283 283 283 283 283 283 282 281 281 281 281 280 280 280 280 279 279 279 279 280 279 279 278 278
291 289 288 283 280 278 278 278 280 281 284 285 283 286 286 288 286 284 283 280 281 281 283 282 284 286 285 284 287 285 283 285 286 285 283 285 286 285 285 286 286 286 286 285 285 284 284 284 284 283 284 284 284 283 283 283 283 283 283 283 283 283 283 283 283 283 283 282 282 281 281 281 280 280 280 280 280 279 279 279 279 279 279 279 278 277
287 289 291 289 286 285 286 284 285 286 283 283 284 286 287 287 289 289 288 285 283 281 281 286 287 287 285 286 287 288 286 287 289 287 287 286 284 284 285 286 286 286 286 285 285 284 283 283 283 283 284 284 283 283 283 283 283 283 283 283 283 283 283 283 283 283 282 282 282 282 281 281 281 281 280 280 280 280 280 280 280 279 279 279 278 277
287 288 290 290 289 290 291 285 286 290 286 287 286 285 287 287 287 287 286 285 286 283 282 288 286 287 289 289 289 287 288 287 287 287 286 285 285 286 285 285 287 285 285 285 284 284 284 284 283 283 283 283 283 283 282 282 283 283 283 283 283 282 283 283 282 282 282 282 282 282 281 281 281 281 281 280 280 281 280 280 280 279 279 278 277 277
288 288 290 290 289 290 289 283 287 288 288 288 288 287 286 287 286 285 287 289 287 287 285 288 288 287 290 291 293 293 293 292 291 290 290 287 285 284 284 284 285 285 285 284 285 285 284 284 283 283 283 283 282 282 282 282 282 282 282 282 282 282 283 282 282 282 282 282 282 282 282 281 281 281 280 280 280 280 280 279 279 279 278 277 277 277
291 289 290 289 288 289 288 284 285 287 285 284 286 287 288 287 287 287 288 290 289 289 291 290 286 287 292 290 292 294 295 294 291 287 285 286 285 285 285 285 285 285 284 285 285 285 285 284 283 283 283 283 283 282 282 282 282 282 282 282 283 283 282 282 282 282 282 282 282 282 281 281 281 281 280 280 280 280 280 279 278 278 277 277 277 276
289 289 291 287 287 288 288 283 284 285 285 284 285 286 287 287 288 288 288 289 289 289 291 290 289 289 291 293 294 290 287 287 287 287 288 287 285 285 285 285 285 285 285 286 285 285 285 284 284 283 283 283 283 282 282 282 282 282 283 283 283 283 283 283 283 282 282 282 282 281 281 281 281 281 280 280 280 280 278 278 277 277 277 277 276 275
289 286 284 286 286 287 287 285 283 283 285 285 284 285 285 285 284 287 286 289 288 287 289 288 287 288 291 294 292 288 287 288 289 288 288 287 286 286 285 286 286 286 286 286 286 285 284 284 284 284 283 283 283 283 283 283 283 283 283 284 283 283 283 283 282 282 282 282 281 281 281 281 280 280 280 279 279 279 278 277 277 277 276 275 274 274
288 287 286 286 285 286 288 286 283 283 284 283 285 288 288 286 287 288 290 290 290 291 287 286 287 293 295 288 289 287 287 287 288 288 288 287 286 286 286 287 287 287 287 286 285 285 285 285 285 285 285 285 284 284 284 284 284 283 284 284 284 283 282 282 282 282 281 281 281 281 281 280 280 280 279 278 277 277 276 276 275 275 275 275 275 273
286 288 287 287 285 286 284 284 284 283 278 281 292 294 291 287 286 286 286 288 290 291 290 293 294 295 291 286 289 289 287 289 290 292 293 291 287 286 286 287 287 288 287 286 286 286 287 287 287 287 286 286 286 285 285 285 284 284 283 283 283 282 282 282 282 282 281 281 281 281 281 280 280 279 278 276 275 275 275 274 275 275 274 273 273 273
286 287 286 286 285 284 282 284 281 277 281 289 285 288 293 292 291 289 290 291 290 291 292 291 293 293 292 289 291 292 292 293 292 290 287 287 289 289 288 288 287 287 286 286 286 287 287 287 287 287 286 286 286 285 285 285 284 283 282 282 282 282 281 281 281 281 281 281 281 280 280 280 279 278 277 275 275 274 274 274 273 273 272 272 273 272
287 287 286 284 284 282 281 283 276 279 287 288 285 283 286 290 291 290 288 291 292 292 292 290 292 294 295 292 289 289 288 286 286 284 286 287 289 290 288 288 288 287 286 287 287 287 287 287 287 287 287 287 286 285 285 285 284 283 283 283 282 281 281 281 281 281 281 281 280 280 280 279 278 278 277 276 274 273 274 273 273 273 272 272 272 272
290 287 286 284 286 281 280 282 283 286 286 289 284 282 289 287 285 287 284 288 292 292 292 292 292 293 293 294 294 285 282 285 286 286 285 287 288 287 289 288 288 287 288 288 288 288 289 289 288 288 287 286 286 285 285 284 283 283 282 281 282 281 280 280 280 281 281 281 280 280 280 279 279 278 277 275 274 273 274 273 272 272 272 271 273 273
293 287 287 285 283 286 282 279 280 280 279 286 286 284 292 291 292 291 289 288 292 292 293 292 291 292 292 293 289 283 284 286 287 288 288 285 285 287 286 287 287 288 288 287 288 287 287 287 287 287 287 286 286 286 285 283 283 282 281 281 280 280 280 280 280 281 281 281 281 280 280 280 279 278 277 276 275 274 274 274 273 272 272 272 272 272
288 290 288 286 285 283 282 280 280 279 283 289 284 286 289 288 291 288 284 284 288 289 291 291 291 292 292 291 284 285 286 286 287 291 287 285 284 285 287 285 285 287 287 288 288 287 287 287 287 286 286 285 285 284 284 283 282 281 280 279 279 279 279 279 280 280 280 281 281 280 280 280 279 279 277 276 276 275 274 274 274 273 272 272 272 273
285 286 286 283 283 285 283 281 280 284 284 285 284 283 285 287 291 289 276 281 284 289 289 290 291 291 291 291 286 287 288 286 289 289 285 285 286 284 287 285 285 286 286 287 286 287 286 285 285 285 285 285 285 284 283 282 281 281 280 279 278 278 279 280 281 281 281 281 281 280 280 279 279 278 277 277 276 275 275 274 272 272 272 272 272 272
282 283 284 281 283 284 285 283 284 285 287 283 281 280 285 290 290 282 278 287 287 289 287 290 290 291 291 287 287 287 290 288 287 285 283 283 283 281 281 283 285 286 285 285 284 285 285 286 286 286 285 285 283 281 281 281 280 280 279 278 278 279 280 281 281 280 280 280 279 279 278 278 278 278 277 277 276 275 273 272 273 271 270 270 269 269
283 284 283 285 283 282 283 282 283 286 288 284 282 287 288 288 278 280 287 279 280 282 281 285 288 286 286 288 288 289 284 281 283 283 283 284 284 282 282 281 281 281 281 282 283 284 284 283 281 280 279 277 279 280 280 280 280 279 278 278 278 280 281 279 279 279 278 278 278 278 277 277 277 277 277 275 274 272 272 270 271 270 269 267 267 267
283 282 280 282 284 284 283 282 280 277 287 286 286 284 286 286 286 286 281 279 279 279 283 283 286 285 287 287 286 281 278 279 282 283 283 282 282 282 281 282 283 282 281 281 280 279 282 280 279 279 277 276 277 279 279 280 279 278 278 278 280 280 278 277 277 277 277 277 277 276 276 276 275 275 275 273 273 272 272 268 268 267 267 267 266 266
288 283 282 284 287 280 281 279 281 287 285 289 289 286 287 288 286 284 286 284 281 281 282 284 283 285 286 287 280 278 278 279 279 279 280 280 280 280 280 280 280 280 279 277 279 279 280 280 278 276 273 274 276 277 280 280 279 278 278 280 278 276 275 275 275 275 275 275 276 275 274 274 274 274 273 272 271 271 270 267 267 266 266 266 266 265
288 286 288 285 288 286 284 287 285 284 288 290 291 289 291 291 284 285 283 283 283 281 280 283 284 282 285 284 280 279 278 280 281 281 281 280 280 280 280 279 279 279 279 279 278 276 278 279 277 275 273 272 273 274 277 279 279 277 278 277 275 274 274 274 273 274 274 274 273 273 272 271 272 271 271 270 271 270 270 267 265 265 263 264 265 265
284 285 283 285 286 287 285 284 284 281 282 287 282 280 283 288 281 282 284 283 283 282 283 285 283 284 282 282 281 278 281 279 280 279 279 279 280 279 278 277 275 275 276 276 275 275 275 276 276 276 275 272 272 274 274 275 278 278 277 273 273 272 272 271 271 272 273 271 271 270 268 269 266 266 267 268 269 271 270 269 266 267 265 264 265 265
284 281 285 283 284 286 282 288 284 284 284 285 287 281 280 282 283 282 283 282 282 282 282 282 284 283 282 282 284 281 279 279 280 279 279 279 279 278 278 278 277 277 277 278 276 275 276 276 276 275 275 275 271 272 273 272 273 274 271 270 271 270 270 270 271 271 268 269 267 264 265 269 267 265 263 263 264 265 266 266 266 266 265 264 264 264
282 284 285 284 283 286 286 284 280 281 280 283 283 283 283 283 281 281 281 282 282 283 283 283 282 281 281 281 281 280 279 279 279 279 279 279 279 278 277 277 276 276 275 276 275 275 275 276 276 274 274 276 274 272 272 272 272 270 267 267 269 268 268 269 269 270 267 266 265 265 264 267 265 266 265 264 264 265 264 263 264 265 266 265 265 264
284 286 279 284 285 281 282 281 280 282 282 282 281 281 282 282 282 280 280 281 282 281 281 281 281 281 283 283 281 281 280 280 281 280 280 279 277 277 277 277 277 277 274 275 273 275 277 275 274 274 273 275 273 271 270 270 269 267 267 267 265 268 269 269 266 265 263 263 263 263 262 264 264 265 264 262 261 262 263 264 264 265 264 262 261 264
284 282 282 284 280 282 285 286 282 281 282 285 284 284 282 281 281 280 280 281 281 281 282 281 279 279 280 281 281 282 281 280 279 280 279 279 278 277 276 276 275 275 274 273 273 273 273 272 274 273 272 272 269 269 269 268 267 265 267 265 265 268 269 267 266 263 263 264 264 261 261 262 261 259 261 261 261 260 259 264 267 265 262 261 267 270
286 286 285 283 283 283 288 288 286 288 284 284 287 285 283 282 280 280 281 282 282 283 283 281 280 280 280 280 280 282 281 280 279 279 279 278 277 277 277 276 276 275 274 272 273 270 272 271 269 269 269 270 267 267 267 266 265 265 264 266 266 268 269 267 267 265 264 263 263 262 261 260 259 260 260 259 260 258 261 258 261 270 271 270 269 270
Wind_Speed
1 3 4 7 8 10 6 9 8 4 4 5 3 3 3 3 5 4 4 4 1 0 7 9 9 9 10 10 11 5 4 6 8 10 10 8 9 9 9 10 9 8 8 5 5 4 4 4 3 3 3 4 5 6 7 7 6 7 8 9 9 6 5 6 6 6 7 8 8 8 8 9 5 6 7 8 7 7 6 8 7 8 7 8 8 8
3 2 8 10 10 8 9 6 4 5 2 1 3 1 4 2 6 5 1 2 2 3 3 2 4 10 12 12 11 2 4 11 14 14 13 12 11 11 12 11 11 7 1 3 3 4 3 3 3 4 4 5 8 6 7 7 7 6 7 9 10 7 6 4 4 5 7 3 4 9 8 8 5 5 5 6 5 6 7 7 7 7 7 7 7 7
1 8 11 10 2 4 2 4 2 4 2 1 2 2 1 7 4 9 5 2 1 2 9 5 7 10 10 10 10 7 11 10 11 15 17 15 13 11 11 11 8 6 7 5 5 5 5 5 5 5 4 4 5 6 7 7 8 7 6 6 6 5 6 6 5 5 7 6 7 7 7 7 9 6 6 6 6 6 8 8 7 7 7 6 7 7
1 6 17 3 5 5 2 3 4 1 1 3 1 1 7 3 1 6 1 2 1 2 3 1 7 10 9 9 13 15 11 8 7 10 13 10 14 15 16 15 14 13 11 11 9 8 6 6 6 5 5 5 5 5 6 6 7 6 6 6 6 6 6 7 6 7 8 10 11 10 9 8 9 8 8 9 7 7 8 9 7 7 6 6 8 7
11 2 1 7 6 7 4 2 4 3 6 2 5 4 2 3 5 7 5 3 2 1 2 4 8 10 8 12 9 4 2 4 9 5 8 9 9 6 3 5 10 15 14 12 9 8 8 8 8 7 6 5 6 5 6 6 6 5 7 8 8 6 7 6 8 9 11 12 11 10 11 11 12 8 7 8 7 6 6 7 7 6 5 7 8 7
9 7 4 6 2 3 4 3 6 7 5 3 5 10 9 6 6 4 3 3 5 4 3 3 6 6 4 4 10 9 4 6 3 5 12 10 7 5 8 10 7 6 7 13 14 13 11 10 8 7 7 7 6 7 5 5 5 6 7 8 9 8 7 8 8 9 9 11 14 12 12 9 8 8 5 7 9 6 6 7 3 6 6 6 8 7
6 1 5 6 6 5 5 5 4 7 6 0 6 10 11 7 4 1 1 3 3 3 2 2 2 11 1 5 4 6 3 10 6 5 11 5 6 7 9 8 10 11 9 5 5 7 9 9 9 8 8 7 7 7 6 6 7 6 6 7 8 8 8 9 9 8 8 8 6 8 11 12 12 12 3 3 4 7 5 5 7 6 6 6 8 7
2 1 4 4 5 5 5 3 5 11 6 4 2 2 5 4 5 4 3 5 5 1 4 2 2 4 16 4 6 3 5 10 13 15 10 7 6 8 7 8 9 11 11 11 11 10 9 10 12 11 9 8 8 8 7 7 7 8 8 8 8 7 8 8 8 7 5 8 8 10 9 8 8 11 10 6 5 4 5 8 7 6 6 6 6 7
6 4 5 4 2 4 8 6 4 9 7 3 1 4 4 5 3 3 3 2 0 3 8 2 0 1 8 5 2 1 4 8 15 16 6 7 8 7 7 8 10 11 12 12 12 12 12 11 11 10 9 7 8 8 9 8 8 8 8 8 8 9 8 7 7 6 4 5 9 12 11 9 6 10 9 6 5 6 5 9 6 7 6 6 6 6
2 5 9 9 7 8 4 0 7 11 5 1 5 8 7 7 6 4 4 2 2 2 9 6 5 4 15 2 2 4 1 10 12 11 5 6 8 9 9 7 8 7 7 7 9 10 9 8 8 8 7 7 7 7 7 8 8 8 8 9 10 9 7 6 6 6 6 7 9 11 12 16 10 8 8 6 7 6 5 9 7 6 6 6 7 6
1 3 4 4 7 4 5 2 2 1 2 7 3 8 6 8 4 3 6 2 3 6 8 10 10 7 10 2 7 7 8 6 6 5 4 3 3 5 6 8 9 9 8 8 7 6 6 5 6 8 10 8 6 6 7 8 10 9 9 10 10 8 6 6 6 7 9 7 6 11 13 16 15 11 12 10 8 7 6 9 7 6 6 6 6 6
1 1 1 1 4 4 4 4 4 1 4 6 2 4 4 3 6 4 4 4 1 8 2 2 5 6 11 4 6 7 5 5 5 5 3 4 5 7 7 7 8 8 8 7 7 7 7 6 5 7 10 9 8 8 8 7 8 9 8 9 10 8 7 7 7 7 7 7 6 8 13 14 14 14 12 12 13 10 10 9 9 6 7 6 5 5
4 5 2 4 4 9 3 7 4 3 0 4 6 7 6 3 5 2 3 2 6 9 1 1 3 2 17 8 6 8 9 9 8 8 7 5 6 6 6 7 7 7 7 9 9 9 9 11 11 10 10 9 10 10 10 9 8 8 10 10 12 10 7 8 7 8 7 7 8 8 10 11 11 9 10 10 11 9 10 9 9 8 8 7 7 5
7 1 1 2 1 5 9 9 3 1 4 6 9 7 6 1 0 4 5 2 7 6 3 0 1 7 2 7 15 20 18 7 6 7 7 6 7 7 9 8 8 9 10 10 10 10 11 11 10 10 11 10 10 10 10 9 9 8 9 10 11 11 9 7 7 8 8 7 8 7 8 9 9 9 8 7 9 8 7 8 9 9 9 8 8 7
4 5 7 8 5 5 10 11 13 7 11 10 2 11 10 9 7 4 6 5 6 4 2 5 1 7 5 4 1 8 6 7 4 5 5 6 5 4 5 7 7 8 8 9 10 11 12 12 12 11 11 10 10 10 9 9 9 9 10 10 11 10 8 9 9 7 9 8 7 7 7 8 7 8 7 7 7 8 9 7 8 6 6 7 6 7
11 7 5 5 1 6 12 1 6 6 3 1 2 6 5 9 7 5 4 3 1 2 4 2 7 4 6 2 6 3 6 6 4 4 1 3 0 4 6 10 11 10 10 10 10 10 10 11 11 10 10 10 10 12 10 11 10 10 11 10 12 13 11 10 9 9 10 9 8 7 8 7 7 6 6 6 5 5 6 7 7 7 6 6 6 5
3 5 1 4 4 3 4 2 2 4 8 5 6 7 6 2 4 3 2 1 1 2 11 4 8 6 8 8 10 8 4 9 3 5 2 2 2 4 7 8 9 10 10 10 12 12 12 10 10 10 11 11 11 11 12 13 12 12 11 11 11 10 10 11 10 10 9 9 9 8 7 8 7 8 8 9 8 7 5 5 5 6 6 6 6 6
8 5 1 4 5 1 0 0 3 5 4 9 4 8 2 2 4 3 5 2 3 4 8 3 9 5 2 11 3 0 4 11 7 10 4 2 4 7 8 9 10 12 11 10 9 9 12 13 13 11 10 11 13 13 13 13 12 11 11 12 13 12 12 10 11 10 10 10 10 9 8 7 8 8 7 7 8 6 7 5 5 5 7 6 6 6
3 4 1 2 0 3 3 1 3 2 3 5 5 4 7 4 2 2 3 4 1 5 7 5 2 9 10 10 1 2 7 11 14 8 3 7 8 10 6 6 6 5 6 9 10 10 11 11 12 12 12 10 11 12 12 11 12 10 9 10 13 14 12 11 9 8 8 8 7 7 8 9 8 6 6 6 6 6 7 7 7 7 7 6 6 6
1 6 3 1 2 2 1 3 10 4 1 1 2 3 1 3 1 5 7 3 5 4 1 9 6 15 7 8 10 8 11 11 10 4 10 14 11 8 8 8 10 10 11 11 11 11 11 11 12 12 12 12 11 11 11 12 10 12 11 11 9 10 11 10 10 10 10 8 7 7 6 6 6 7 8 8 8 8 8 8 8 8 8 8 7 6
3 1 6 1 3 2 4 5 10 13 11 1 2 3 0 0 1 4 0 4 4 4 5 5 12 5 5 6 11 12 10 10 10 11 11 9 6 9 9 11 11 11 11 12 11 11 11 11 10 9 8 8 6 7 9 11 12 12 10 11 11 13 12 13 11 10 10 8 7 8 10 9 8 8 7 7 7 7 7 7 7 7 7 7 7 7
2 2 7 2 0 6 7 2 5 7 9 11 15 15 17 12 5 4 8 2 1 3 6 3 14 9 4 5 9 10 5 7 4 4 8 5 5 8 9 9 10 11 10 10 10 10 11 10 10 8 7 6 8 9 10 10 10 11 12 12 11 11 12 12 10 10 10 9 9 10 10 9 8 8 7 8 7 7 7 7 7 7 7 8 7 8
7 3 5 5 7 9 4 0 1 1 1 1 2 4 5 4 4 4 7 7 1 5 4 3 1 16 1 0 3 3 3 4 1 4 9 6 5 7 8 8 9 10 11 12 12 11 10 11 11 11 12 12 12 11 11 11 12 11 11 11 11 12 10 10 11 9 9 10 10 10 8 9 9 8 8 9 7 7 7 7 6 6 8 8 7 6
6 3 2 3 1 2 2 3 1 2 2 1 1 1 5 11 13 12 5 5 9 3 2 1 5 8 2 1 2 4 2 3 3 4 8 5 4 5 8 9 10 9 7 7 8 8 9 8 8 9 11 12 12 12 13 11 10 10 10 10 10 12 11 10 10 10 10 10 10 9 9 9 8 9 9 9 8 8 7 7 6 6 7 7 7 8
5 4 8 2 1 1 3 2 2 1 1 2 4 8 12 9 5 1 4 1 1 9 10 9 17 10 3 1 2 1 2 4 6 5 6 7 5 5 7 8 8 7 7 9 11 11 9 9 12 13 11 11 11 10 10 11 11 10 10 9 10 10 10 10 9 10 10 11 12 11 11 10 9 10 10 10 7 8 7 7 7 6 7 7 8 7
7 7 10 9 12 13 11 12 13 9 10 4 3 5 4 11 12 5 7 5 9 6 13 8 17 4 3 4 3 2 2 5 7 6 4 7 5 6 6 7 8 9 10 9 10 10 14 13 9 9 11 11 11 11 10 10 10 9 9 9 8 10 9 9 9 10 11 10 12 12 12 11 10 11 12 10 9 9 8 8 7 7 6 7 8 7
2 3 11 14 15 18 17 5 2 11 5 7 11 14 14 11 12 11 6 5 16 4 10 18 17 7 5 3 3 6 3 6 9 5 7 6 5 4 6 8 9 10 10 12 11 9 6 9 14 13 10 10 10 9 9 9 9 9 9 10 9 9 10 10 10 10 11 11 12 11 12 11 12 11 11 10 10 8 8 8 8 8 8 7 7 8
2 3 11 16 18 19 18 5 9 18 16 17 14 13 15 14 15 16 15 19 7 4 16 13 5 11 18 8 8 6 8 7 8 8 7 6 7 7 6 5 6 6 6 7 9 13 16 14 10 11 12 11 10 9 8 8 10 11 11 12 10 9 10 9 11 11 11 11 11 11 12 11 10 10 10 8 8 9 9 8 8 7 6 6 7 8
6 8 11 11 16 19 10 5 10 9 12 13 16 16 16 17 16 20 24 16 10 15 22 7 12 14 21 12 13 13 14 15 13 13 11 6 4 5 6 8 10 10 9 11 14 13 12 14 14 13 12 12 10 11 11 10 10 9 8 8 10 10 11 10 11 11 11 11 12 12 11 9 8 8 8 8 8 9 9 9 8 7 6 6 6 5
4 9 14 9 15 14 11 4 6 10 5 3 10 15 18 21 24 25 23 19 16 17 19 10 8 17 19 7 10 15 14 11 7 3 2 5 7 7 8 9 11 11 12 15 15 15 14 13 11 12 12 12 14 14 13 12 11 11 12 11 10 10 9 10 12 12 12 12 13 10 9 9 8 9 9 9 10 10 9 9 8 8 8 8 6 6
3 9 6 4 7 15 12 3 5 7 6 8 8 12 16 20 21 22 19 16 16 17 20 10 13 27 8 8 13 4 0 3 4 7 10 7 5 9 10 11 11 13 14 14 12 13 12 10 11 11 13 14 14 15 14 13 12 10 10 10 11 12 11 11 12 11 11 12 10 9 9 9 10 9 10 10 9 9 9 9 8 8 8 7 6 7
7 5 3 3 8 13 7 10 6 4 4 6 9 15 21 16 14 11 12 13 11 19 18 13 19 24 4 12 5 5 6 7 10 10 8 8 9 9 10 12 12 13 14 15 15 11 11 13 14 15 15 14 13 13 12 12 12 12 14 12 12 11 10 11 11 12 11 10 9 9 10 10 9 10 10 9 9 8 8 8 7 8 7 7 7 7
7 5 5 7 10 13 10 8 8 5 2 5 14 31 17 11 10 12 17 17 20 19 15 17 22 22 14 6 7 6 7 9 9 10 10 8 7 12 14 14 15 15 17 15 13 14 15 16 16 16 15 14 14 15 15 13 12 14 13 13 12 9 11 11 11 11 10 10 10 10 10 9 11 10 9 9 8 7 7 8 8 8 8 9 7 6
2 7 8 5 9 11 3 6 5 5 10 16 14 4 17 18 17 18 17 18 17 14 15 19 21 21 6 5 9 10 10 12 14 16 14 13 12 11 11 12 14 14 10 8 11 14 16 12 12 13 14 14 14 13 10 11 13 10 8 9 8 11 11 12 11 11 11 10 10 10 9 10 10 10 9 7 7 8 9 9 11 9 6 6 6 8
6 6 6 2 4 6 5 8 6 14 17 7 6 5 14 23 23 24 22 17 19 20 21 21 21 20 9 9 12 12 14 15 12 9 6 6 9 13 17 17 15 12 13 14 14 13 12 13 12 10 11 11 12 11 11 11 9 8 9 10 11 10 11 10 10 10 10 11 9 9 9 10 9 9 8 8 8 9 9 10 8 7 8 8 9 10
9 9 5 3 3 3 4 8 7 12 4 7 3 2 3 3 13 14 16 20 20 22 22 23 26 22 18 13 10 8 5 4 1 3 6 7 11 14 13 13 13 11 12 14 15 13 12 13 14 14 14 9 10 10 11 12 10 10 11 9 11 10 10 11 11 12 10 10 10 10 10 10 10 10 9 9 9 9 10 10 10 10 8 7 7 5
11 6 4 6 5 8 5 10 14 7 11 12 4 3 10 9 8 14 11 18 20 19 19 20 22 20 18 19 17 4 2 2 2 7 5 11 12 8 10 11 10 13 12 10 12 14 13 11 11 9 7 9 11 11 11 10 10 10 9 11 10 10 10 10 11 12 11 11 11 11 10 11 12 11 10 9 10 11 11 10 9 8 7 8 8 9
12 13 7 10 6 9 8 7 2 5 13 20 5 5 10 9 14 13 11 16 14 17 20 19 20 21 20 20 10 4 4 1 11 13 10 8 6 7 5 5 6 7 8 6 4 4 6 6 6 7 10 10 10 10 8 10 11 11 10 10 9 10 10 10 13 11 11 12 11 11 11 11 11 12 11 11 13 13 11 9 6 7 7 10 11 11
4 8 9 14 7 5 6 8 8 11 15 9 4 11 11 5 12 7 3 17 9 13 15 17 20 23 20 17 6 9 5 10 15 17 6 9 6 6 7 5 5 5 6 7 9 9 9 8 9 9 8 9 10 8 9 10 12 11 11 10 10 10 11 12 12 11 12 12 11 11 10 10 11 11 11 12 13 12 12 12 12 9 7 8 7 8
8 7 6 8 8 10 10 10 11 5 10 2 6 1 6 10 12 10 2 16 2 13 14 16 21 22 18 13 10 12 12 13 19 9 6 10 10 6 8 9 7 7 5 5 4 6 8 9 10 8 9 10 10 9 11 10 11 10 10 9 8 9 12 13 13 11 10 9 8 8 8 8 10 11 12 13 12 10 11 8 6 8 9 8 7 6
6 4 7 15 14 13 12 8 4 6 5 4 5 4 8 8 10 10 17 14 7 9 8 13 17 19 12 9 12 12 16 8 3 6 9 8 8 4 3 3 3 6 9 8 8 8 9 9 10 11 11 8 8 9 9 10 10 9 8 8 9 12 14 11 8 7 7 6 7 7 9 8 10 12 12 11 11 10 7 7 8 7 8 8 7 6
7 5 2 7 11 13 13 13 12 8 6 7 3 16 11 10 6 19 7 1 5 6 5 7 12 6 6 13 12 11 3 0 2 6 11 9 8 7 6 7 9 8 6 5 7 9 8 7 6 6 5 4 8 9 9 10 10 8 8 9 11 14 9 5 6 6 6 8 8 8 9 10 9 10 11 8 7 8 9 7 7 8 8 7 7 8
13 10 9 11 6 2 1 9 2 6 7 13 14 2 5 11 8 3 1 0 2 4 7 6 8 7 9 9 7 4 5 3 6 7 8 8 11 11 10 11 11 11 10 9 6 4 9 9 8 6 6 5 7 8 9 10 10 8 8 9 13 6 5 5 6 7 7 7 8 9 10 10 11 10 8 8 9 10 9 7 8 7 7 8 8 8
8 7 4 8 9 9 11 10 10 9 6 18 21 13 10 12 3 4 7 5 2 5 6 6 6 7 8 10 9 5 4 7 4 6 7 6 8 8 7 6 6 7 6 5 6 8 7 9 7 7 4 5 6 7 8 10 9 8 9 12 3 4 5 6 6 6 7 8 8 8 8 9 8 8 7 8 8 8 9 8 8 7 8 8 9 8
11 15 10 12 9 11 10 11 2 4 13 14 11 7 11 11 2 6 1 3 8 6 4 5 7 5 7 10 9 11 6 5 10 9 13 10 10 11 11 9 10 10 9 9 7 5 6 11 10 8 5 4 5 5 6 6 10 9 11 4 5 5 7 6 6 7 7 8 7 8 7 6 7 8 7 7 9 9 9 7 7 8 6 7 8 8
4 2 4 2 3 2 2 2 1 1 4 10 3 2 1 7 3 4 6 4 4 4 8 7 6 7 7 9 12 4 8 9 10 5 6 9 9 7 7 7 5 5 6 7 5 5 7 8 8 9 9 4 3 5 5 5 9 12 6 4 5 6 6 7 7 6 7 6 6 6 5 6 5 5 5 6 7 8 8 10 10 10 8 8 8 8
5 1 2 3 1 6 8 6 10 6 3 7 10 1 1 1 6 5 4 3 3 5 3 1 8 9 11 10 11 10 9 10 10 8 9 9 9 9 10 10 8 8 10 9 7 8 8 8 8 8 8 7 4 5 5 5 4 4 5 5 5 5 6 6 6 5 4 5 4 4 5 6 6 5 4 4 4 5 5 6 7 7 8 8 9 9
5 5 4 3 2 11 7 2 3 2 3 4 6 5 4 5 3 3 2 2 3 3 3 6 6 6 6 7 8 12 11 9 13 11 10 9 10 9 9 9 9 6 3 5 6 6 6 7 8 7 6 6 6 4 5 4 4 4 4 5 5 6 6 6 5 6 5 5 4 5 5 5 6 7 6 5 6 7 6 5 6 8 10 11 10 10
3 7 6 8 10 2 3 3 3 2 2 3 5 6 4 3 7 4 4 6 7 8 7 5 2 8 9 9 9 12 12 7 10 13 12 8 8 7 8 8 8 8 9 8 5 6 8 7 7 7 7 6 4 5 4 4 3 4 4 4 5 6 6 6 5 4 4 4 5 5 4 5 5 6 6 5 4 3 2 6 7 8 5 2 4 7
6 8 3 6 5 6 12 12 8 3 7 10 12 12 7 3 4 5 5 5 5 9 9 10 5 4 3 5 11 13 13 10 6 9 10 10 9 8 7 8 7 7 5 4 5 4 5 5 6 7 5 3 3 4 4 4 3 3 4 4 5 6 6 6 5 5 5 5 5 4 5 4 3 3 4 5 5 5 2 2 5 5 5 4 3 9
12 9 9 9 10 13 14 10 11 11 3 3 9 9 8 7 8 9 9 9 7 8 12 13 10 6 5 4 2 9 12 12 11 7 10 7 7 7 9 11 9 7 7 6 7 4 5 4 3 4 4 4 3 4 4 4 3 3 3 4 5 6 6 6 6 5 5 4 5 5 5 4 5 4 5 4 5 4 5 4 3 7 11 10 8 9
Wind_Direction
103 124 172 200 217 206 204 193 198 180 128 94 92 113 199 201 282 284 276 264 286 23 230 225 234 243 257 254 261 240 192 234 245 241 231 221 210 208 209 206 202 200 201 202 199 200 194 175 169 154 140 130 122 125 125 120 123 130 132 127 117 119 115 124 125 105 108 115 108 82 82 97 76 66 70 64 51 47 49 57 57 62 63 65 69 68
60 131 240 224 217 186 200 196 101 94 65 127 116 164 270 150 250 237 226 3 325 169 292 268 265 256 255 265 263 240 156 231 225 230 235 226 215 212 206 205 202 192 189 158 190 214 200 178 166 148 151 143 137 144 139 138 138 133 135 131 132 137 124 96 77 103 101 71 94 115 109 97 71 74 66 72 48 60 62 54 55 61 63 66 68 69
122 197 233 228 117 129 73 151 163 154 156 64 187 199 319 269 247 280 253 311 278 103 258 294 278 265 262 259 264 234 221 234 221 215 223 215 216 213 208 205 183 171 187 180 193 188 181 177 166 159 158 156 145 144 142 144 140 140 132 119 115 117 120 107 93 95 99 97 92 95 103 102 97 55 60 72 66 71 76 61 49 56 60 66 66 64
230 284 246 151 136 111 55 85 122 99 52 162 103 129 223 237 68 294 307 358 7 166 278 348 305 276 270 258 252 246 225 246 239 225 234 216 216 210 206 194 185 186 176 184 184 181 180 178 169 163 160 157 136 131 128 140 140 142 141 124 109 103 98 108 103 101 93 93 92 84 93 87 87 105 93 82 70 73 76 65 55 52 58 63 71 61
197 212 352 150 156 159 151 112 118 140 237 262 181 179 217 206 236 190 252 314 297 0 54 321 289 282 245 256 267 279 331 279 260 252 256 244 233 226 200 186 190 185 178 174 176 183 178 179 177 170 162 154 147 148 147 142 139 138 139 132 123 108 102 97 116 118 118 109 97 103 95 92 93 79 89 93 68 61 74 79 56 49 52 65 72 66
280 257 98 91 116 130 119 144 200 156 225 290 228 196 213 210 224 271 343 4 3 329 348 62 321 293 287 260 250 273 324 278 257 226 245 235 227 188 191 196 178 188 187 176 178 180 177 174 167 166 161 161 154 148 143 136 128 128 127 125 123 118 123 124 123 133 132 132 133 136 121 114 110 107 107 110 120 101 83 86 86 63 55 69 74 69
210 239 142 162 139 167 166 184 231 163 193 145 268 199 214 203 195 170 180 71 301 248 305 29 215 284 284 265 263 271 279 272 278 240 255 237 218 206 205 184 182 178 177 188 178 168 168 175 168 169 169 165 158 150 135 123 128 128 119 119 124 131 134 137 141 146 139 130 129 127 127 133 135 125 69 73 81 108 100 93 84 78 62 62 82 75
139 241 101 87 104 135 157 205 242 166 134 234 260 162 168 142 178 206 152 188 233 254 294 42 122 262 295 263 243 296 314 281 290 269 242 230 220 214 204 187 184 181 181 176 180 178 179 175 172 173 168 165 160 145 138 136 135 137 135 130 130 128 137 145 146 148 153 138 136 116 109 112 121 126 133 135 119 104 113 98 89 87 74 65 70 86
155 180 169 173 162 142 190 208 170 154 147 219 260 129 143 167 172 116 117 132 99 21 284 294 220 293 255 272 306 354 268 271 259 260 261 226 221 213 204 193 189 184 183 177 174 180 179 177 173 167 165 159 145 151 149 152 148 140 138 133 134 138 147 149 148 147 135 143 139 128 123 108 104 119 122 127 118 115 118 102 94 92 88 82 72 74
299 172 205 173 157 207 212 243 163 161 186 242 129 90 87 82 71 100 95 80 335 45 260 186 181 212 274 242 228 348 231 258 254 262 273 239 219 203 201 197 186 179 180 186 182 175 174 174 165 160 144 145 157 152 146 144 141 141 140 142 145 148 154 152 142 133 132 142 140 129 133 128 135 129 120 128 128 123 126 108 109 106 100 95 84 73
250 292 169 134 198 195 120 55 156 144 127 134 88 70 30 40 27 22 59 74 31 261 248 183 203 175 281 226 199 165 215 211 265 305 297 301 258 213 206 191 182 181 179 177 171 170 165 166 155 150 157 154 144 144 145 146 147 150 149 152 150 153 148 146 141 144 148 149 153 138 143 138 142 144 139 138 135 133 129 123 122 115 108 98 98 96
358 13 150 255 99 109 100 77 22 100 130 131 97 124 61 346 13 34 343 40 124 263 259 277 214 178 218 291 277 248 266 233 212 244 266 266 235 215 199 192 185 176 173 165 160 162 158 153 160 160 159 158 153 147 150 152 149 150 151 151 146 146 151 146 142 144 149 147 147 147 144 143 146 150 150 149 147 152 142 137 129 124 112 106 104 102
273 219 246 331 207 134 109 84 13 38 36 85 97 89 124 248 34 308 23 273 204 235 175 295 140 354 243 235 271 268 259 257 221 226 233 240 244 220 201 190 178 171 164 170 170 164 169 170 168 171 167 159 160 165 160 158 155 153 153 156 152 153 155 151 151 151 151 144 147 154 146 142 143 148 148 146 143 152 143 141 136 139 133 135 124 128
269 288 310 264 67 234 147 152 160 67 215 129 150 152 120 141 104 278 269 269 308 292 261 304 141 254 289 272 226 244 247 231 229 226 236 232 230 208 195 179 175 177 177 177 173 174 174 173 174 174 168 168 166 166 164 161 159 157 158 162 160 157 156 151 153 154 147 147 147 151 148 143 144 147 149 148 145 150 143 146 146 148 149 148 144 143
235 304 242 139 247 176 185 195 182 158 162 202 86 155 182 147 155 219 193 210 224 219 279 284 103 234 135 250 274 257 282 306 252 247 249 251 247 223 182 167 168 176 184 177 177 179 178 178 175 174 171 169 167 166 164 164 163 159 162 165 160 153 158 155 158 154 149 146 148 148 147 142 142 146 146 148 151 148 147 149 143 142 143 139 143 137
213 232 267 225 316 156 184 200 106 90 65 228 167 61 100 213 147 222 202 165 276 332 333 205 213 192 187 266 290 245 290 283 297 292 273 268 159 144 151 175 183 186 181 180 179 181 183 178 177 174 174 171 167 166 166 168 166 167 169 168 165 162 162 162 159 162 155 152 151 150 149 146 141 138 135 135 138 140 143 147 147 146 143 137 131 126
45 269 300 319 45 146 181 118 157 142 192 207 106 199 207 171 120 84 42 27 108 46 256 145 284 282 300 284 244 249 272 276 301 276 267 239 180 167 186 188 189 186 183 184 185 182 181 179 183 180 176 173 168 168 173 174 172 170 167 167 166 165 164 164 166 158 156 152 151 155 149 147 145 147 154 155 153 149 143 141 144 141 140 131 130 129
154 236 326 86 210 322 129 236 95 30 145 99 189 228 112 98 109 141 233 347 75 205 272 128 236 284 70 277 349 15 248 262 266 254 231 217 191 196 204 194 191 190 191 188 186 186 184 182 181 182 182 179 175 173 173 173 170 172 171 169 165 167 169 170 161 159 158 160 159 156 153 150 151 153 151 149 151 148 143 141 137 133 137 145 141 134
117 283 301 325 192 301 357 103 40 348 30 147 195 196 127 239 232 291 91 265 225 259 276 280 241 256 192 243 53 183 206 241 247 243 213 235 214 213 202 201 194 180 173 184 190 189 189 188 186 182 184 184 178 175 172 170 167 170 174 173 171 170 172 166 163 158 156 162 159 159 156 153 148 147 144 144 144 148 153 156 156 155 146 134 138 135
103 187 284 353 131 311 4 132 198 189 351 41 78 93 60 99 167 133 200 175 117 260 50 281 92 261 167 219 182 219 203 219 241 225 229 235 215 199 199 192 188 189 190 189 192 193 190 191 189 185 183 182 180 177 174 168 168 173 174 173 178 168 159 159 163 162 163 163 157 152 147 149 151 153 155 158 159 163 166 165 159 153 151 154 143 141
204 151 252 314 320 96 191 197 203 164 175 143 126 194 180 24 246 112 0 145 175 182 192 276 296 263 250 201 184 208 200 210 209 219 232 242 210 203 197 189 192 194 192 193 191 189 188 190 190 189 185 182 175 178 174 173 176 175 172 176 176 170 168 168 168 165 164 156 158 157 160 160 158 158 155 155 165 163 166 168 164 161 156 143 151 147
132 140 200 149 279 226 244 255 216 204 202 188 180 190 183 144 148 167 249 60 128 145 239 159 254 270 260 170 207 193 249 214 191 244 268 257 211 201 199 197 193 193 198 193 191 185 185 187 186 184 181 176 173 181 182 178 176 178 178 178 176 175 171 168 168 169 162 162 160 167 166 164 160 157 157 162 164 167 170 171 166 162 155 159 155 153
168 144 101 196 212 207 216 266 238 224 102 181 178 242 179 196 131 140 208 227 45 252 103 190 46 271 232 1 278 223 169 243 209 186 245 247 209 202 200 198 201 198 191 191 188 187 188 186 185 184 184 183 183 183 183 183 185 182 179 176 178 173 177 172 167 164 163 164 166 169 166 161 163 159 162 165 170 172 174 171 166 165 163 160 157 153
99 128 166 260 340 306 307 307 358 146 135 330 305 111 129 199 197 204 200 175 180 168 169 278 252 263 324 208 233 251 244 253 268 215 241 261 217 204 193 190 197 192 194 191 188 187 187 185 182 182 189 186 187 186 188 186 183 181 181 179 173 177 169 168 168 165 165 166 167 165 164 172 164 161 165 172 176 175 174 170 169 168 165 162 159 157
154 236 192 156 328 334 342 345 314 24 69 210 187 205 203 208 187 112 97 76 200 216 173 158 241 238 263 302 292 348 353 321 272 245 212 247 231 202 194 192 192 192 183 187 188 185 179 182 189 195 191 189 189 188 186 186 186 179 180 178 177 175 171 166 164 166 169 168 167 170 173 173 167 168 173 177 175 177 174 173 170 173 168 165 167 163
177 156 169 192 213 228 231 212 213 197 201 205 266 203 189 190 185 143 228 187 226 212 163 202 243 230 276 311 312 305 332 304 272 246 249 228 227 196 194 188 189 188 196 191 184 181 192 193 188 188 194 191 191 189 186 187 184 179 176 180 176 172 168 170 167 171 168 171 172 176 178 174 171 177 179 177 175 178 179 174 174 174 172 176 170 158
181 205 189 197 208 227 236 252 81 108 81 193 215 188 206 204 201 203 221 203 220 141 192 226 232 248 266 268 262 270 234 235 262 268 241 244 235 211 193 189 191 194 188 189 192 191 173 193 198 197 190 191 189 188 186 181 179 178 178 180 180 175 170 169 169 171 172 177 180 178 181 178 182 179 178 178 178 176 178 178 177 177 178 180 175 164
87 201 219 218 219 228 238 193 192 153 183 205 194 205 203 194 195 195 204 224 131 116 248 234 151 242 246 216 241 246 253 247 245 254 263 249 225 197 188 180 179 188 192 183 186 191 197 197 188 190 192 188 190 182 180 181 184 184 184 183 178 172 172 171 170 173 179 179 184 185 186 185 179 178 180 176 175 180 179 177 178 179 176 175 175 170
165 213 226 219 236 237 233 156 184 183 185 189 198 200 196 201 195 203 219 218 144 208 235 221 174 222 245 208 223 223 229 227 223 227 227 211 170 164 159 177 192 195 189 192 203 200 195 195 195 190 187 186 175 182 183 183 187 183 181 180 180 176 180 168 170 178 180 181 187 192 185 177 178 176 175 175 177 179 180 179 177 172 172 182 179 170
162 233 224 201 235 247 240 167 182 184 189 192 208 206 203 197 203 207 216 212 206 228 242 230 221 238 239 185 204 226 226 226 227 195 131 174 193 175 178 188 195 196 196 203 203 202 201 196 187 190 186 184 186 183 183 186 187 186 185 186 181 177 175 165 181 180 183 187 193 185 177 177 176 178 177 179 184 184 179 176 175 174 179 184 178 164
141 232 223 167 228 246 240 131 186 196 162 207 226 222 217 211 209 209 212 218 220 244 246 256 265 261 248 155 228 221 120 169 194 203 214 213 172 180 188 195 199 201 205 207 205 202 198 191 190 189 193 195 189 188 186 189 186 182 185 184 180 183 179 175 182 186 185 193 187 178 172 174 183 179 185 187 182 180 176 174 173 178 182 181 174 164
157 252 63 116 219 250 228 181 194 191 199 211 238 233 222 204 210 206 217 217 199 224 235 242 250 254 193 190 211 178 184 181 208 213 217 218 197 184 193 202 202 206 206 206 202 190 188 195 194 194 194 192 192 190 188 185 183 182 193 184 183 182 171 180 184 185 191 190 180 178 179 181 179 185 190 182 187 180 174 170 174 183 185 177 173 169
193 152 168 172 216 236 237 162 174 131 135 292 252 236 211 200 194 205 217 209 206 209 217 223 239 245 240 165 182 221 200 215 216 211 220 217 193 192 199 203 207 208 207 200 188 190 195 198 197 194 194 192 192 191 193 182 178 193 188 182 183 164 175 183 184 186 189 189 185 185 182 178 183 189 188 188 180 172 169 175 182 187 184 187 177 159
169 194 215 162 216 233 181 145 107 164 211 224 249 121 171 187 188 208 217 215 218 206 220 223 235 247 222 160 200 213 203 218 213 222 204 189 188 203 218 218 215 210 199 184 189 195 202 198 197 197 195 194 195 193 178 180 189 187 173 171 161 174 180 181 187 188 193 189 190 185 182 183 186 189 188 175 172 173 180 183 194 191 181 168 167 181
155 193 215 145 199 210 125 124 158 213 226 236 359 279 175 187 192 203 220 213 218 219 231 243 249 255 235 196 211 215 215 224 226 230 205 202 182 191 201 211 211 198 186 188 195 201 197 194 193 188 185 188 181 174 174 187 180 153 163 169 172 181 179 184 185 192 193 193 189 181 183 184 185 186 179 179 180 182 189 193 189 180 183 180 186 186
179 180 158 219 140 53 139 176 218 221 260 317 314 357 322 141 189 193 231 234 223 219 218 233 243 247 252 243 236 234 249 261 310 238 202 208 195 198 201 208 204 181 188 195 193 195 188 188 189 186 190 172 161 173 178 182 166 164 174 167 176 177 182 183 189 196 193 192 188 188 186 183 184 186 185 182 182 185 194 195 192 189 183 182 191 197
178 166 159 223 165 205 189 202 233 3 321 281 239 222 154 172 151 176 211 244 227 224 220 230 242 247 249 251 244 197 105 77 279 276 230 209 212 214 202 205 184 190 190 192 190 197 193 184 178 174 149 158 171 170 180 165 162 165 157 169 179 174 182 184 194 199 195 193 192 191 186 186 187 190 186 181 182 193 198 194 194 194 179 186 194 194
177 192 190 211 217 200 195 215 264 250 251 251 209 197 178 170 169 175 195 264 238 206 215 215 232 237 239 244 232 128 115 34 271 257 220 217 193 184 195 188 179 185 187 175 144 129 140 148 133 141 155 160 170 172 158 155 159 160 165 174 173 175 184 189 202 199 193 198 196 192 189 191 189 189 188 184 193 197 200 197 198 195 179 190 194 200
237 218 198 201 205 160 221 224 205 219 236 246 190 174 184 163 158 124 102 252 252 167 203 199 221 232 228 229 190 136 133 228 246 247 185 171 185 178 164 155 147 154 155 160 163 157 156 155 151 146 143 152 166 165 155 154 155 160 174 175 176 180 186 199 204 195 197 201 196 192 190 190 190 191 188 193 200 196 196 196 197 192 181 199 198 209
199 197 163 218 220 210 209 215 226 210 245 259 186 167 164 132 113 118 120 253 131 170 193 188 213 227 228 213 160 177 186 222 236 246 158 171 164 164 157 158 149 143 137 135 126 139 133 127 122 139 152 169 176 156 154 152 159 171 176 177 166 180 199 206 203 199 199 197 189 187 185 184 188 193 192 200 201 196 202 192 174 180 187 197 197 196
196 219 199 209 213 219 221 244 291 273 258 184 183 169 146 141 124 154 214 236 183 186 187 190 208 221 211 170 165 193 217 220 240 151 141 131 119 107 73 94 125 138 146 145 137 131 135 148 153 162 173 171 149 149 152 153 159 172 168 161 172 199 209 205 191 186 188 178 176 179 184 185 190 195 201 199 199 194 188 179 187 176 179 190 189 186
215 205 246 216 223 218 217 227 234 262 243 157 218 156 162 109 201 214 220 93 147 197 218 192 217 212 153 184 190 211 183 261 100 118 138 146 139 128 129 124 109 82 62 92 128 136 130 126 114 106 94 118 142 146 149 151 156 163 157 170 196 213 202 165 170 166 165 175 181 184 185 189 196 197 199 193 171 173 189 189 179 184 183 178 180 194
181 176 189 204 209 259 101 228 210 249 249 128 117 54 254 194 235 184 135 267 186 206 167 207 193 204 169 194 186 145 143 124 135 146 131 133 134 140 138 134 133 135 133 123 110 138 132 124 125 124 126 131 138 145 152 149 153 158 166 182 214 196 150 163 157 165 172 178 182 187 191 193 192 194 187 183 183 181 189 177 179 181 172 176 185 195
170 178 185 225 177 199 201 208 212 220 109 157 144 175 203 218 206 174 148 193 216 194 190 177 210 189 186 159 144 138 144 127 85 118 102 97 104 102 105 105 106 111 109 104 131 147 123 111 113 111 107 124 136 146 151 150 148 158 170 210 173 137 149 151 164 159 171 183 191 190 195 194 193 191 184 181 176 183 180 181 183 178 184 183 185 195
185 199 181 206 174 196 202 214 156 180 166 188 175 194 203 189 114 184 160 170 167 221 192 165 188 175 170 148 143 145 147 192 156 161 146 151 141 143 143 152 149 144 140 136 133 126 119 132 131 121 106 102 124 135 145 150 149 161 191 201 143 158 154 157 153 165 179 189 191 193 192 182 187 188 186 179 173 181 187 182 171 184 191 179 194 199
323 257 21 97 250 297 327 176 154 172 213 219 276 190 222 178 206 170 167 161 234 186 178 175 169 162 151 151 136 180 154 157 143 142 123 138 139 135 118 111 101 101 109 112 110 118 122 116 117 118 119 109 129 142 153 158 156 170 195 171 151 149 146 148 154 172 191 186 187 188 163 176 187 182 182 179 188 194 189 183 183 191 183 186 204 204
245 152 200 195 244 174 245 203 203 218 224 214 218 246 276 227 187 182 184 234 187 155 167 136 165 162 161 164 157 150 144 153 144 143 146 140 143 143 146 140 145 150 148 145 150 131 116 119 117 125 134 142 180 165 170 166 176 146 144 142 142 135 136 145 160 173 171 183 167 149 158 178 181 177 174 180 185 190 180 175 180 186 187 194 202 206
280 167 191 200 189 201 234 237 322 310 271 248 207 197 202 211 178 167 165 171 149 155 141 155 134 129 137 153 151 140 146 156 144 151 153 152 148 151 148 147 143 129 101 119 138 127 117 121 130 138 143 156 181 182 173 173 165 159 129 129 131 132 132 141 160 167 178 170 161 169 172 184 173 174 184 189 181 186 186 186 180 191 200 196 197 197
171 115 207 188 211 311 334 289 268 359 325 265 248 250 259 217 181 159 138 137 146 136 126 121 127 161 164 157 145 137 138 167 155 150 145 144 142 146 150 146 149 142 144 137 147 141 139 142 140 155 155 173 177 168 170 180 169 157 143 135 135 134 136 150 161 153 156 158 151 174 174 181 177 184 179 181 197 223 197 192 200 208 226 224 182 208
111 202 186 170 224 208 217 223 146 167 238 227 218 213 202 184 152 141 123 138 154 143 143 128 95 78 100 144 151 148 146 151 156 145 144 147 150 145 138 136 133 133 120 113 120 123 122 138 142 151 163 178 163 161 171 179 178 165 157 143 149 144 141 147 146 152 167 163 169 166 163 166 160 153 162 169 183 198 272 306 199 212 201 231 205 211
200 193 167 193 185 219 223 231 182 218 313 275 206 188 172 169 145 153 168 171 185 166 150 129 121 107 116 131 160 151 149 154 156 143 131 140 147 149 147 140 137 135 135 133 123 113 135 142 131 143 146 168 155 162 171 173 179 169 174 162 163 158 153 148 153 169 170 167 182 171 167 161 163 166 161 164 165 173 191 250 297 236 228 217 213 222